Lapse_Rate
8.4 8.3 8.4 8.5 8.7 8.6 8.5 8.6 8.5 8.2 8.3 8.1 8.5 7.9 7.6 7.5 7.7 7.0 7.0 6.7 6.7 5.7 6.6 5.3 7.0 4.4 5.9 6.0 6.5 6.5 6.7 6.4 6.3 6.5 6.5 6.5 6.5 6.5 6.5 6.5 6.5 6.5 6.5 6.5 6.5 6.5 6.5 6.1 6.3 6.5 6.2 5.2 5.5 5.9
8.3 8.3 8.5 8.5 8.4 8.4 8.5 8.5 8.5 8.3 8.1 8.1 8.4 8.3 7.8 7.5 7.5 7.6 6.4 6.3 6.9 6.5 5.9 5.2 6.6 7.0 6.2 6.0 5.3 5.9 5.6 6.3 5.8 6.5 6.5 6.5 6.5 6.5 6.5 6.5 6.5 6.5 6.5 6.5 6.5 6.5 5.9 5.8 5.8 6.0 5.3 5.5 6.3 4.8
9.1 8.8 8.6 8.4 8.4 8.4 8.6 8.4 8.4 8.2 8.1 8.0 7.9 8.0 7.5 7.3 7.3 7.1 6.1 6.1 6.4 6.3 5.7 4.9 5.9 6.2 6.9 5.7 5.0 4.6 5.3 6.5 5.3 4.7 4.1 6.4 6.5 6.5 6.5 6.5 6.5 6.5 6.4 6.5 6.5 6.5 6.4 5.8 5.4 5.8 5.7 6.1 5.4 5.0
9.1 8.6 8.5 8.5 8.5 8.4 8.5 8.3 8.1 8.1 8.2 8.3 7.9 7.4 7.1 7.0 7.6 7.7 6.7 6.4 6.2 5.9 6.1 5.5 6.5 7.5 8.1 7.2 6.9 6.7 6.0 5.8 5.9 4.5 5.5 6.5 6.5 6.0 6.5 6.5 6.5 6.3 6.4 6.5 6.5 6.4 5.9 6.2 5.9 5.5 6.2 6.4 6.7 5.7
8.7 8.5 8.6 8.6 8.3 8.4 8.4 8.2 8.1 8.2 8.5 7.9 7.3 6.8 6.7 6.8 7.5 7.3 6.7 7.1 7.0 5.6 6.3 6.0 6.7 7.3 7.9 7.2 7.6 7.0 6.4 5.7 5.0 5.3 6.3 6.5 5.7 6.3 6.2 6.5 6.5 6.0 6.5 6.5 6.5 6.0 5.6 5.3 5.5 5.9 6.2 6.2 6.1 6.6
8.6 8.5 8.4 8.3 8.3 8.5 8.1 7.9 7.7 7.8 7.4 7.0 6.6 6.9 6.0 6.9 7.2 6.9 4.4 5.9 6.5 6.6 4.6 6.5 5.7 7.1 7.5 7.5 7.7 7.1 6.5 5.9 5.2 5.6 5.9 5.4 6.4 5.3 6.5 6.5 6.1 5.6 5.7 5.2 5.7 5.7 4.7 3.8 4.8 5.5 4.9 4.4 5.7 5.5
8.4 8.3 8.5 8.6 7.2 7.0 7.3 7.0 6.8 7.1 6.9 6.6 7.4 6.1 6.6 7.3 6.6 6.0 5.2 5.4 5.9 5.5 4.5 5.8 6.0 6.7 7.4 7.3 6.2 5.9 6.4 5.8 5.3 5.4 5.4 5.4 5.3 5.5 6.5 6.5 6.1 5.9 5.8 5.9 5.6 5.8 5.5 5.9 4.9 6.0 6.2 5.7 5.8 5.1
8.4 8.4 7.9 6.7 6.7 5.9 5.4 5.1 5.9 6.2 7.0 7.3 7.1 6.5 6.4 6.8 6.4 6.4 5.5 6.6 5.9 5.4 5.5 6.5 6.5 5.7 6.8 5.5 5.5 5.8 5.2 5.3 5.5 5.0 5.2 6.0 5.3 4.9 6.5 6.2 6.3 6.8 7.0 6.6 6.3 6.3 6.0 5.7 5.8 5.4 5.4 4.2 4.2 4.5
8.3 7.5 6.7 5.7 5.7 5.2 6.2 6.9 6.9 6.9 7.1 6.3 6.5 6.9 6.2 5.5 4.4 5.8 7.0 6.0 4.5 5.2 3.9 4.5 6.5 6.5 6.0 5.4 5.2 4.7 4.9 6.4 5.2 6.5 6.2 5.9 6.5 6.5 6.5 5.9 6.3 6.3 6.3 6.2 6.0 5.8 5.7 5.2 5.3 5.3 3.8 3.6 3.5 4.2
8.1 7.3 5.7 6.4 4.9 6.2 6.1 6.1 6.7 7.1 7.5 7.8 7.2 5.8 5.9 5.8 7.4 6.3 3.9 2.6 1.9 4.3 5.3 6.6 4.0 6.5 5.3 4.7 5.1 4.7 4.1 6.5 6.5 6.3 4.6 6.5 6.5 6.2 6.5 6.8 6.6 6.3 6.5 6.1 5.0 4.9 4.9 4.9 5.0 4.0 3.4 3.1 3.0 2.7
8.0 7.7 6.8 6.9 5.3 6.4 7.1 7.9 7.9 7.9 7.5 5.4 5.0 6.2 6.6 6.7 6.0 5.2 5.8 5.7 3.9 6.5 4.8 4.9 4.8 6.2 5.3 6.5 6.5 4.1 6.5 6.5 6.5 6.5 6.5 6.5 6.5 6.3 5.7 5.9 5.9 6.4 6.2 6.5 6.6 5.9 4.8 4.8 4.3 2.8 2.5 2.2 2.6 2.8
8.0 7.8 7.6 7.3 7.3 7.1 7.5 7.0 6.2 5.1 5.3 5.8 5.8 5.6 5.6 5.9 4.9 6.3 6.5 6.1 6.5 6.5 4.9 5.9 4.7 4.5 4.8 4.5 5.7 5.0 6.5 6.5 6.5 5.3 6.5 6.5 6.5 5.2 5.5 4.7 6.0 4.0 3.1 3.7 5.0 5.4 5.0 5.3 3.7 1.7 1.6 2.1 2.4 1.8
7.7 7.6 7.6 7.5 7.9 7.9 6.8 7.0 7.5 7.2 6.9 6.2 5.6 5.5 5.8 4.6 6.5 6.5 6.5 6.5 6.5 3.7 3.2 3.1 6.2 3.6 4.3 4.2 3.5 6.5 6.5 6.5 4.5 6.5 6.5 6.5 4.6 5.7 6.2 6.5 5.2 1.9 1.3 1.2 1.1 2.8 2.6 1.3 1.0 1.1 1.0 0.9 0.6 1.4
7.4 7.4 7.4 7.4 7.5 7.4 6.8 6.8 6.1 5.3 6.5 4.2 3.8 6.5 6.5 6.5 6.5 6.5 6.5 6.5 3.0 2.4 3.4 4.6 4.7 5.5 2.6 5.9 6.3 6.5 6.5 6.5 6.5 6.5 6.5 6.5 4.6 4.0 2.6 3.4 3.0 1.3 1.4 2.4 1.3 0.7 -0.1 -0.3 -0.2 0.6 0.9 1.2 1.5 1.6
7.5 7.7 7.8 7.5 7.6 7.4 6.8 7.2 6.6 5.7 5.2 4.9 4.7 6.5 6.5 3.4 3.3 3.2 3.1 4.1 3.8 4.6 4.0 4.7 5.4 4.3 6.6 6.5 6.5 6.5 6.5 6.5 6.5 6.5 6.5 5.3 4.5 4.1 4.0 3.6 2.5 3.9 3.2 2.6 2.3 1.7 1.4 1.0 1.0 1.3 1.3 1.7 1.5 1.3
7.8 7.9 7.7 7.7 8.0 7.5 7.7 7.8 5.9 4.8 4.5 5.3 6.0 5.4 3.5 4.7 4.3 2.8 2.7 3.1 4.7 4.4 4.2 5.0 6.5 6.5 6.5 6.5 6.5 6.5 6.5 6.5 6.5 6.5 4.2 3.5 2.3 3.5 4.6 5.2 5.0 4.6 4.5 3.6 3.1 2.7 2.4 2.5 2.4 2.1 2.2 2.5 2.7 2.3
7.6 7.5 7.8 7.8 7.5 7.4 8.0 6.8 5.9 5.2 5.4 6.2 4.9 4.0 3.7 3.6 3.3 3.7 3.7 2.8 4.6 4.4 6.5 6.5 6.5 6.5 6.5 6.5 6.5 6.5 6.5 6.5 5.5 4.6 2.9 4.3 4.0 3.6 5.5 4.8 4.6 4.6 4.3 3.6 3.1 3.3 2.8 2.9 3.5 3.6 3.2 3.2 3.6 3.8
6.8 6.5 7.0 7.3 7.4 7.5 6.9 7.2 6.0 5.9 6.2 4.4 5.3 3.6 3.6 2.9 3.2 3.2 3.0 4.9 5.1 5.0 6.2 6.3 5.5 6.5 6.5 6.5 6.5 6.5 5.1 5.3 4.1 3.4 3.5 5.7 6.3 5.3 5.3 5.3 4.7 5.0 4.6 3.7 3.6 3.9 3.9 4.5 5.3 4.8 4.2 4.1 3.9 3.7
6.6 6.6 7.0 7.3 7.3 6.9 5.7 6.1 6.2 5.8 4.7 4.9 4.7 5.2 5.8 4.7 3.5 3.3 3.3 4.9 5.7 5.6 5.5 5.0 6.5 6.5 6.5 5.2 5.1 3.9 4.4 4.3 4.3 4.0 3.1 4.1 5.3 5.8 5.4 5.2 4.9 5.0 4.8 4.8 5.1 4.6 4.6 5.0 4.6 4.5 4.2 3.9 3.3 3.5
6.9 6.8 7.0 7.1 7.4 7.1 7.2 5.8 7.2 6.2 6.0 5.9 6.0 6.4 6.5 6.0 4.5 4.4 5.4 5.0 4.9 3.8 4.9 6.5 6.5 3.2 2.5 2.3 2.3 2.8 2.9 4.3 3.6 4.1 3.5 2.8 3.9 5.1 5.3 5.3 5.2 5.1 4.9 4.8 5.1 4.5 5.5 6.0 5.2 4.5 3.9 3.5 3.0 2.8
7.5 7.2 7.6 7.8 8.1 7.1 5.7 5.8 6.5 6.4 6.1 6.4 5.3 6.0 6.3 5.8 6.2 6.1 5.6 4.5 4.4 4.3 6.5 3.0 2.0 0.9 2.2 1.7 2.2 2.9 3.6 4.5 3.8 4.1 5.2 4.6 4.2 5.2 5.4 5.5 5.1 4.7 4.6 4.8 4.8 3.8 4.0 3.6 3.4 4.5 3.4 3.6 2.9 3.1
6.3 7.8 7.7 7.8 6.0 6.1 6.4 6.0 6.2 6.1 6.4 5.9 6.3 6.1 6.5 6.5 6.6 6.4 5.8 6.5 5.9 4.2 3.8 3.5 2.6 2.6 3.2 3.8 3.2 4.6 4.5 6.1 6.4 4.7 5.8 5.0 5.0 5.6 5.7 5.3 5.2 5.5 5.1 4.6 4.5 4.4 4.7 4.5 3.5 3.7 4.4 4.3 4.5 4.5
7.0 6.4 5.9 6.1 5.7 5.9 6.1 6.6 6.5 6.0 6.5 6.2 6.0 6.3 6.4 6.5 6.0 5.7 6.4 6.0 6.1 3.6 3.9 4.8 5.0 5.4 4.1 4.1 4.7 5.3 5.6 6.4 6.2 5.9 5.9 5.7 5.7 5.5 5.4 5.2 5.5 6.1 5.9 4.3 4.9 5.2 5.3 5.1 4.9 4.7 4.8 5.0 5.0 5.2
6.6 5.4 5.4 6.3 6.8 6.0 5.8 6.1 6.0 6.1 5.4 6.3 6.5 6.5 6.5 6.3 6.2 6.4 6.5 4.8 3.8 3.2 4.1 4.9 4.5 4.4 4.8 5.1 5.0 5.0 5.8 6.7 5.7 5.4 5.6 5.4 5.3 5.0 5.2 4.8 4.8 4.7 4.3 4.4 4.6 4.7 4.6 4.7 4.5 4.6 5.0 4.9 4.9 4.5
6.4 5.8 6.5 6.4 6.3 6.5 6.5 6.5 6.5 6.5 6.5 6.5 6.5 6.5 6.5 5.7 6.5 6.5 6.5 5.5 4.4 4.4 4.5 5.4 5.5 5.5 5.2 4.7 5.2 5.3 6.4 6.7 6.2 5.5 5.1 5.5 5.2 5.1 4.8 4.5 4.1 3.7 3.8 4.8 4.2 4.1 4.4 4.7 4.8 5.2 5.0 4.9 4.8 4.6
6.5 5.2 6.2 6.0 6.3 6.5 6.5 6.5 6.5 6.5 6.5 6.5 6.5 5.3 5.6 6.5 6.5 6.5 6.5 6.2 6.1 5.0 5.7 5.9 6.1 5.9 6.0 5.9 5.1 4.9 4.9 5.9 5.9 5.6 4.8 5.6 5.1 4.8 5.2 4.9 4.2 3.5 3.3 4.0 4.5 4.4 4.4 4.7 4.7 5.2 4.8 4.8 5.0 5.2
6.5 6.5 6.3 6.8 6.5 6.8 6.0 4.9 6.0 6.2 6.5 6.5 6.5 6.5 6.5 6.5 6.5 6.5 5.8 5.6 5.6 5.0 4.7 4.5 5.3 5.8 5.4 5.0 4.5 3.4 3.1 3.8 4.8 5.0 4.1 4.7 4.1 3.8 4.9 5.3 4.7 3.7 3.6 3.9 5.2 4.8 4.8 5.0 5.4 5.6 5.3 5.3 5.6 5.6
5.7 5.9 6.5 5.0 6.0 5.9 6.5 6.5 6.5 6.5 6.5 6.2 6.0 6.5 6.5 6.5 6.5 5.9 5.5 5.6 5.3 5.2 4.9 4.3 4.2 4.3 5.0 4.3 3.0 2.6 2.4 2.0 2.8 2.9 2.9 2.7 2.3 2.7 3.2 3.2 2.8 3.7 3.4 3.6 5.6 5.4 5.4 5.4 5.5 5.5 5.3 5.3 5.9 5.0
5.2 5.9 5.8 6.6 5.0 5.8 5.6 6.4 6.4 5.6 5.7 5.4 6.4 6.5 6.3 5.5 4.5 3.7 3.1 3.1 4.3 6.0 5.9 4.7 4.8 4.5 3.9 3.0 3.0 2.5 3.1 3.7 4.1 4.6 4.5 3.9 4.0 3.4 3.4 4.0 3.5 2.3 4.3 4.8 6.3 6.4 6.0 5.7 6.0 5.6 4.5 4.9 5.3 4.8
5.3 6.1 5.4 4.6 6.5 6.5 4.2 4.4 4.4 5.3 5.6 5.9 5.9 5.3 5.9 4.5 2.6 2.0 2.5 2.7 3.7 5.7 6.4 6.3 5.4 4.9 5.0 4.7 4.4 4.0 4.2 4.6 5.5 6.1 6.3 5.6 5.1 2.8 4.2 4.6 4.4 4.6 4.7 4.9 5.0 6.1 6.7 6.4 5.7 5.1 4.8 4.7 4.6 4.0
6.5 6.6 6.6 5.2 5.1 4.2 4.2 4.1 3.9 4.1 3.9 4.4 4.9 6.2 6.8 5.7 3.7 4.1 3.4 2.4 2.9 5.9 6.5 6.3 6.3 6.3 6.4 5.5 5.6 5.3 5.2 5.3 5.4 4.2 4.0 2.6 3.7 4.1 4.4 4.6 5.0 5.2 4.7 4.7 4.8 4.9 5.0 4.7 4.3 4.0 3.7 3.5 3.3 3.6
6.6 6.5 4.5 6.5 5.5 5.1 5.4 5.2 5.1 4.7 5.1 4.2 6.4 5.7 6.0 6.1 6.1 3.2 2.5 4.4 7.0 6.6 6.6 6.8 7.0 6.4 6.2 5.6 5.3 5.1 4.8 4.5 4.7 3.8 3.3 3.8 4.7 4.1 4.0 4.2 4.6 4.2 4.0 3.8 3.7 4.0 4.0 3.9 3.7 3.8 3.5 3.2 3.6 3.5
6.3 6.6 6.6 6.6 5.2 5.3 5.7 6.4 5.6 4.7 4.2 5.6 6.3 5.2 6.5 6.1 5.4 3.1 2.7 3.6 5.4 6.5 6.6 6.6 6.7 6.4 5.8 5.7 5.3 4.4 4.1 4.7 4.6 4.2 4.5 4.6 3.9 3.6 3.5 3.7 4.0 4.0 4.0 4.0 3.7 4.0 3.7 3.8 3.8 3.3 3.3 3.9 3.0 2.5
Wind_Speed
29 27 25 23 23 24 24 25 24 24 24 25 22 20 20 19 17 10 7 12 8 2 5 3 0 4 5 5 4 5 2 1 2 3 4 3 3 5 3 4 4 7 4 5 4 5 11 7 4 7 5 4 5 2
27 25 23 23 22 23 23 23 24 23 24 24 23 21 20 20 21 21 4 11 10 3 4 3 2 7 3 8 7 7 5 5 4 2 2 2 2 1 7 7 7 6 6 4 7 5 5 2 5 3 3 2 3 6
22 21 21 23 21 21 22 22 23 24 23 24 25 22 23 23 23 21 6 5 4 4 2 3 6 6 6 6 4 4 2 2 3 2 2 2 1 2 3 4 4 4 6 6 3 6 8 8 3 3 5 5 6 7
20 20 21 20 20 20 21 21 22 23 23 22 24 25 24 23 23 26 8 9 3 3 3 1 2 2 5 6 6 5 4 5 3 3 2 0 0 2 1 2 2 3 5 2 2 2 4 2 4 6 6 5 2 6
19 18 17 18 20 21 22 23 23 23 24 25 28 29 26 27 27 20 6 9 4 4 2 3 4 3 5 4 5 6 5 4 2 2 1 2 2 2 3 1 3 3 4 3 4 3 4 5 5 6 5 6 7 4
15 14 15 18 19 20 17 20 23 25 28 30 33 32 32 27 32 7 2 1 2 3 3 3 3 4 4 4 2 4 3 2 2 2 1 2 5 4 2 3 6 7 7 7 6 6 7 8 7 8 8 8 7 7
12 12 12 12 9 17 22 26 29 30 31 29 26 27 24 25 13 5 4 7 14 2 3 3 2 2 4 3 1 2 2 2 2 2 2 2 2 1 2 5 6 10 13 11 8 6 7 5 5 5 4 8 9 7
7 4 2 9 18 27 31 32 28 25 24 20 21 26 31 26 12 4 4 10 4 3 3 3 2 3 5 2 1 2 2 2 1 3 1 2 2 3 4 6 12 16 17 12 11 10 10 7 7 8 5 9 8 7
6 12 9 13 17 10 27 31 34 38 36 37 34 28 8 5 3 1 7 12 3 4 3 3 5 4 5 2 3 3 2 1 3 3 3 3 3 5 6 10 11 13 12 11 9 9 9 9 10 12 8 10 10 8
14 12 5 12 20 30 41 39 36 33 30 26 4 4 3 2 10 0 8 4 4 3 2 2 3 2 4 2 2 3 1 2 2 4 3 3 6 13 16 15 13 13 15 10 8 8 7 8 7 6 8 7 10 8
15 13 12 16 21 26 29 28 27 24 13 3 3 4 2 3 3 3 2 3 1 2 1 2 3 5 2 4 3 3 3 2 2 4 5 3 3 8 13 16 16 14 16 14 13 12 9 8 6 8 8 10 10 10
14 14 15 13 15 12 10 7 9 4 3 7 8 5 2 2 3 5 1 1 0 3 3 4 3 4 2 4 3 2 3 1 5 2 2 2 4 10 7 4 7 6 7 6 5 7 11 15 9 10 11 11 10 9
15 15 14 9 9 12 10 14 27 21 7 3 4 4 3 2 5 5 5 2 1 2 2 3 1 4 3 3 2 3 3 4 1 1 3 4 4 4 5 2 2 7 9 8 8 5 5 7 10 11 11 9 12 12
16 15 13 12 11 11 10 9 8 7 3 3 4 5 2 2 1 2 2 3 4 3 3 2 2 3 2 2 3 4 5 0 3 2 4 2 3 2 5 5 4 5 6 5 6 8 11 11 11 11 11 12 13 12
14 15 14 10 10 11 15 13 14 4 3 3 4 2 1 2 1 0 0 3 3 1 3 2 1 3 2 3 3 3 1 4 5 4 3 2 3 3 2 3 4 4 3 4 5 7 8 9 11 10 9 10 11 11
17 11 6 11 11 9 7 6 5 4 3 3 2 3 2 3 2 2 1 2 2 2 2 3 0 3 5 3 4 6 3 5 4 2 1 3 2 3 3 1 3 4 3 4 5 6 7 8 9 10 9 9 10 10
10 3 12 12 13 5 7 4 3 4 2 3 2 0 3 2 3 2 2 3 2 2 2 2 3 5 3 3 4 4 4 3 1 2 1 3 2 2 1 2 3 4 5 6 6 5 7 8 9 10 10 7 8 8
3 11 18 16 8 3 2 2 3 2 2 2 1 2 1 2 2 2 2 3 1 4 3 3 2 2 4 3 2 3 2 1 1 1 1 1 4 3 3 5 4 4 5 6 6 6 7 8 8 6 9 9 9 9
9 10 17 14 6 2 2 2 2 2 3 1 1 1 3 3 3 3 2 4 4 3 3 1 3 3 3 2 2 2 2 2 3 3 3 3 3 4 4 5 5 5 7 7 7 5 5 6 6 7 7 7 6 6
16 16 14 13 4 3 1 1 1 2 2 2 1 3 2 3 2 2 4 2 1 2 2 3 4 3 2 2 1 2 2 2 2 1 2 2 2 3 5 6 5 6 6 6 5 6 4 6 5 6 6 7 7 7
7 3 2 4 1 1 2 2 2 2 2 3 2 3 2 1 2 2 1 3 1 3 3 3 3 1 3 3 2 2 3 1 2 3 2 2 2 3 3 3 6 5 4 3 4 3 5 4 4 6 5 7 4 7
3 11 1 1 2 3 3 3 2 2 2 2 3 2 3 2 3 3 2 3 3 3 3 3 3 4 4 4 3 3 4 3 2 1 2 3 2 3 4 3 5 4 3 4 3 4 4 4 4 4 6 6 7 7
6 4 3 2 1 3 4 0 2 3 3 2 1 2 3 2 2 3 2 3 4 3 3 3 4 5 6 6 6 4 4 4 3 2 2 1 2 3 3 4 3 5 5 2 4 4 4 7 6 5 6 7 7 8
4 2 2 2 4 4 0 2 2 2 2 2 2 4 1 1 3 2 3 3 3 2 2 4 5 4 3 4 3 3 3 2 3 2 2 2 2 1 3 3 2 3 3 4 5 5 6 6 6 5 7 7 8 8
3 4 2 5 3 3 3 3 3 2 3 4 2 4 2 1 2 3 3 1 1 1 2 3 3 3 3 2 2 2 4 2 3 3 1 1 2 3 3 2 2 2 3 5 4 6 5 6 6 7 7 8 10 10
4 5 6 3 2 2 3 3 2 2 3 2 4 1 1 2 3 4 1 3 2 1 2 4 4 3 2 4 4 2 3 3 4 3 1 2 1 2 4 4 3 1 1 2 5 6 6 6 7 8 8 10 10 10
3 4 3 3 1 2 3 3 3 2 3 3 2 1 2 3 4 1 1 2 2 2 3 2 2 2 3 4 5 3 3 3 3 3 3 4 3 2 2 4 5 3 4 4 4 7 8 6 7 8 9 8 8 8
5 1 4 2 1 2 2 2 3 3 3 2 1 2 3 2 1 1 1 1 2 2 2 2 3 2 3 4 5 5 4 3 5 5 4 3 3 2 3 3 3 6 4 4 5 5 5 6 6 7 9 8 7 9
3 1 2 2 1 3 4 4 4 1 1 0 1 3 3 1 1 2 2 2 1 1 2 1 0 2 4 3 3 3 4 5 6 5 5 3 2 2 1 2 3 2 3 4 6 6 8 6 7 7 7 6 7 8
2 2 1 3 4 4 4 3 1 1 1 1 2 3 3 3 3 2 2 2 3 4 3 2 3 3 3 4 4 2 3 3 2 2 3 3 5 4 5 4 4 4 4 5 5 7 9 8 10 8 8 7 7 8
1 1 2 3 4 2 1 1 2 2 3 3 4 7 8 4 3 4 6 4 3 4 4 4 3 3 3 4 4 5 3 3 3 4 3 2 5 5 5 5 5 5 5 6 6 6 8 7 8 9 9 9 9 9
3 4 2 2 3 0 1 1 2 3 2 3 5 3 2 2 3 3 2 4 5 5 5 4 5 3 2 2 4 2 3 5 5 3 4 3 5 5 4 5 5 6 6 5 5 7 8 9 8 8 8 10 10 10
2 3 2 2 2 2 1 1 3 4 3 3 4 4 5 3 5 3 1 1 2 4 4 4 3 4 6 6 5 4 5 4 6 5 3 6 8 7 4 4 5 7 8 6 7 7 8 10 9 10 10 10 11 12
Wind_Direction
228 228 230 235 237 240 243 241 240 240 244 238 241 240 235 233 239 236 239 204 225 131 273 295 333 105 98 139 132 147 172 283 135 188 170 211 206 212 228 245 192 177 197 208 192 212 259 236 230 160 203 190 183 133
223 224 227 233 233 235 239 240 241 238 238 235 239 234 243 243 249 236 237 186 202 200 260 277 50 101 86 212 136 181 182 155 185 170 260 177 273 174 209 235 241 196 161 202 174 207 231 196 127 227 152 138 147 123
218 222 226 228 231 235 239 242 240 238 238 238 231 236 246 254 245 216 194 213 126 195 233 52 54 346 50 82 140 130 301 170 157 152 165 233 212 160 221 246 222 293 183 204 170 225 200 252 232 204 117 85 111 128
217 219 224 229 234 238 239 243 238 239 231 227 235 243 246 251 240 206 201 211 171 155 112 273 305 53 73 55 73 75 133 62 62 90 86 24 306 9 291 289 98 192 340 342 324 329 29 179 111 124 105 113 76 158
209 216 226 235 240 242 242 244 237 229 232 238 245 241 244 246 235 186 204 177 189 109 122 97 31 327 106 69 65 89 69 80 67 28 72 174 305 296 315 328 219 186 230 144 227 251 192 236 168 168 179 197 183 164
202 217 231 239 247 258 247 238 235 237 242 247 245 244 235 227 170 167 119 316 256 179 104 126 230 185 140 113 136 143 144 99 107 112 224 232 192 135 230 239 231 218 241 240 250 232 239 246 240 236 228 200 189 173
199 223 243 261 265 273 272 262 252 241 236 232 234 216 207 186 155 164 175 158 205 152 95 81 77 178 147 114 73 58 61 73 121 191 222 208 287 125 198 228 269 289 278 279 284 297 302 280 257 286 225 181 146 156
182 223 54 335 306 286 273 258 226 211 203 199 156 136 121 119 99 99 30 84 169 136 96 106 149 77 148 148 146 154 128 100 272 215 249 197 243 202 244 223 234 245 254 256 254 254 253 249 272 269 166 128 143 157
114 93 25 317 326 316 102 105 119 117 117 105 105 106 88 49 64 144 75 53 33 96 126 118 138 190 150 140 130 28 96 44 238 197 205 165 215 227 217 221 233 239 238 242 247 253 248 240 245 252 178 146 147 162
108 95 22 14 24 90 102 101 105 116 121 128 90 67 69 117 159 55 16 27 24 348 21 144 129 145 123 117 107 101 161 223 244 230 160 196 240 245 247 252 256 261 262 251 238 252 253 265 250 156 156 156 159 153
119 117 73 67 70 93 103 112 121 128 135 62 65 71 110 151 43 63 69 74 301 27 339 250 144 132 188 136 155 180 189 233 251 251 166 235 255 241 241 244 254 260 258 254 251 247 224 214 214 167 155 154 152 149
122 125 109 99 106 109 90 61 34 57 72 98 111 113 121 69 62 88 114 4 23 184 186 148 218 146 173 112 115 222 183 175 246 240 120 256 259 268 270 69 5 358 2 348 319 275 255 234 199 164 151 147 149 133
120 120 125 117 100 78 35 83 99 102 89 65 57 59 77 354 70 126 168 202 152 210 213 161 191 146 46 76 104 120 189 235 305 23 228 214 243 46 59 116 178 21 9 352 348 342 93 105 117 133 127 123 120 118
121 123 118 113 95 81 30 39 33 332 26 70 76 38 87 5 244 179 151 162 234 133 111 87 139 145 149 111 166 144 223 214 259 243 230 235 170 154 48 15 56 20 20 16 45 58 69 79 83 91 113 125 123 127
110 111 115 112 109 74 33 29 357 354 45 63 67 107 173 220 7 193 10 33 321 238 112 54 349 133 95 106 241 206 235 243 211 232 232 117 86 51 33 36 63 55 61 62 74 85 82 90 99 97 101 114 117 122
111 109 96 111 113 69 45 12 1 32 26 29 47 43 340 90 312 12 318 246 239 156 147 73 82 166 210 210 163 201 202 217 237 195 186 108 97 14 348 59 90 108 109 100 94 93 96 101 110 108 103 111 119 127
175 77 133 118 120 87 347 355 34 37 30 342 10 354 152 160 190 174 198 237 189 89 109 154 207 205 171 207 197 187 205 224 144 119 110 91 52 353 190 134 134 131 122 117 103 101 104 109 113 111 111 108 113 113
54 133 131 131 117 86 340 333 9 3 342 280 26 276 320 164 175 247 236 278 136 145 166 245 347 173 197 193 131 323 31 336 228 96 52 89 310 275 189 167 156 143 131 114 118 125 125 124 118 116 122 122 118 122
133 138 143 154 183 140 65 341 93 335 260 240 342 26 262 256 227 180 214 262 231 218 144 258 237 216 232 232 168 177 155 187 185 202 193 193 174 247 185 157 147 140 132 140 147 151 154 151 139 142 143 143 142 146
130 141 159 200 326 334 285 293 104 279 285 217 185 253 241 247 260 205 208 201 221 164 193 220 213 236 181 193 155 140 135 185 148 198 234 208 195 174 169 160 160 151 151 167 176 170 171 137 145 147 154 152 153 157
109 138 84 355 274 154 320 309 245 239 276 247 235 199 245 203 230 210 209 160 174 222 215 217 213 177 118 128 124 128 136 152 208 183 186 192 177 161 157 174 156 165 172 156 160 153 130 151 152 155 156 153 143 144
81 159 95 243 19 311 263 221 246 257 251 274 305 211 251 233 200 187 162 183 223 230 197 181 176 150 152 163 174 147 142 142 119 116 151 113 145 170 171 166 164 173 153 158 156 155 144 135 122 122 127 131 132 140
97 35 40 45 348 256 263 100 249 235 263 255 235 249 236 236 149 128 231 221 239 231 169 158 156 151 146 136 130 135 161 194 196 168 149 179 158 153 140 154 174 169 158 169 149 135 137 138 137 131 137 140 141 144
93 103 178 235 208 271 198 246 218 255 272 263 238 271 246 246 161 232 245 216 222 135 119 137 124 109 99 135 162 173 180 160 126 91 84 110 106 85 131 124 138 143 143 139 139 140 145 151 145 148 148 141 142 141
145 220 207 246 219 246 238 248 221 234 248 235 238 266 225 149 241 241 238 245 108 126 130 133 138 162 156 164 135 118 139 139 167 157 161 108 129 111 99 93 82 77 130 141 144 145 146 148 151 154 148 150 148 148
240 201 193 236 214 197 270 279 308 315 306 283 245 243 305 246 237 248 72 3 17 99 162 177 183 176 172 153 149 150 185 128 123 121 135 122 131 146 158 155 142 249 184 132 146 152 150 153 154 152 149 150 147 145
260 243 197 229 285 341 303 261 253 245 262 240 276 280 237 245 244 81 107 22 1 344 352 14 124 134 138 107 97 81 63 64 101 118 99 85 75 32 123 179 187 203 160 152 150 152 157 157 156 148 148 150 159 151
227 211 176 242 209 205 241 288 261 246 245 356 356 255 242 272 316 68 77 33 341 332 352 7 20 47 119 125 125 117 92 75 83 84 73 53 41 44 36 30 67 104 113 120 133 135 141 142 141 139 148 151 145 146
245 134 80 283 257 264 225 218 234 237 97 41 251 270 285 334 207 204 200 181 192 292 245 173 73 76 87 83 98 110 135 155 156 161 192 187 166 198 170 109 96 88 98 109 127 131 134 134 130 131 125 119 127 133
243 131 199 200 176 238 245 190 244 72 291 262 284 304 292 283 239 160 161 177 189 227 245 203 157 168 165 161 154 146 170 187 212 203 223 217 191 153 155 148 137 128 119 116 117 119 114 114 111 111 114 120 125 126
88 131 253 248 253 232 217 352 282 244 223 228 227 250 264 288 286 220 206 188 185 211 187 180 175 185 189 182 176 173 180 176 151 123 80 98 119 138 147 146 142 138 131 132 131 130 128 126 130 131 131 130 134 137
188 214 223 265 287 60 285 318 280 260 264 229 239 225 216 238 254 255 201 176 199 209 217 223 217 192 149 104 103 95 126 150 156 150 185 152 147 141 132 132 131 132 134 124 121 139 134 136 139 141 138 137 139 135
212 208 212 254 257 248 136 307 268 273 242 257 263 220 222 194 249 242 343 349 198 195 203 214 203 156 144 129 114 92 68 86 114 135 191 136 133 133 127 126 132 139 143 143 142 144 140 136 137 135 136 135 127 127